| time (UTC) | temp C | wind direction | speed KPH | gust KPH | rain 1hr cm | rain 24hr cm | rain mn cm | humidity % | barometer mb |
| 20260505083026 | 18 | 192 | 11.3 | 17.7 | 0.00 | 0.00 | 0.00 | 71 | 1009.8 |
| 20260505081522 | 18 | 190 | 16.1 | 20.9 | 0.00 | 0.00 | 0.00 | 70 | 1009.7 |
| 20260505080020 | 18 | 193 | 14.5 | 25.7 | 0.00 | 0.00 | 0.00 | 69 | 1009.6 |
| 20260505074520 | 18 | 191 | 17.7 | 24.1 | 0.00 | 0.00 | 0.00 | 69 | 1009.4 |
| 20260505073029 | 18 | 177 | 20.9 | 32.2 | 0.00 | 0.00 | 0.00 | 69 | 1009.2 |
| 20260505071519 | 18 | 185 | 17.7 | 29.0 | 0.00 | 0.00 | 0.00 | 69 | 1009.3 |
| 20260505070014 | 18 | 205 | 19.3 | 32.2 | 0.00 | 0.00 | 0.00 | 69 | 1009.6 |
| 20260505064530 | 18 | 180 | 19.3 | 32.2 | 0.00 | 0.00 | 0.00 | 69 | 1010.2 |
| 20260505063009 | 18 | 184 | 17.7 | 29.0 | 0.00 | 0.00 | 0.00 | 68 | 1010.3 |
| 20260505061512 | 18 | 180 | 19.3 | 27.4 | 0.00 | 0.00 | 0.00 | 68 | 1010.8 |
| 20260505060104 | 18 | 180 | 19.3 | 29.0 | 0.00 | 0.00 | 0.00 | 68 | 1010.8 |
| 20260505054627 | 18 | 187 | 16.1 | 25.7 | 0.00 | 0.00 | 0.00 | 67 | 1011.1 |
| 20260505053107 | 19 | 169 | 17.7 | 30.6 | 0.00 | 0.00 | 0.00 | 66 | 1011.0 |
| 20260505051552 | 19 | 182 | 16.1 | 27.4 | 0.00 | 0.00 | 0.00 | 65 | 1011.1 |
| 20260505041555 | 20 | 188 | 16.1 | 27.4 | 0.00 | 0.00 | 0.00 | 63 | 1011.4 |
| 20260505040047 | 20 | 203 | 12.9 | 19.3 | 0.00 | 0.00 | 0.00 | 62 | 1011.3 |
| 20260505034545 | 20 | 192 | 14.5 | 24.1 | 0.00 | 0.00 | 0.00 | 62 | 1011.3 |
| 20260505033047 | 20 | 178 | 17.7 | 29.0 | 0.00 | 0.00 | 0.00 | 61 | 1011.3 |
| 20260505031557 | 20 | 175 | 17.7 | 25.7 | 0.00 | 0.00 | 0.00 | 62 | 1011.2 |
| 20260505030042 | 21 | 184 | 14.5 | 22.5 | 0.00 | 0.00 | 0.00 | 61 | 1011.1 |
| 20260505024543 | 21 | 186 | 14.5 | 20.9 | 0.00 | 0.00 | 0.00 | 60 | 1010.7 |
| 20260505023040 | 21 | 196 | 12.9 | 20.9 | 0.00 | 0.00 | 0.00 | 59 | 1010.7 |
| 20260505021540 | 21 | 187 | 14.5 | 25.7 | 0.00 | 0.00 | 0.00 | 58 | 1010.6 |
| 20260505020039 | 21 | 212 | 11.3 | 17.7 | 0.00 | 0.00 | 0.00 | 58 | 1010.6 |
| 20260505014539 | 22 | 208 | 17.7 | 27.4 | 0.00 | 0.00 | 0.00 | 56 | 1010.5 |
| 20260505013037 | 22 | 211 | 20.9 | 30.6 | 0.00 | 0.00 | 0.00 | 55 | 1010.3 |
| 20260505011536 | 23 | 211 | 17.7 | 32.2 | 0.00 | 0.00 | 0.00 | 54 | 1010.2 |
| 20260505010034 | 23 | 211 | 19.3 | 33.8 | 0.00 | 0.00 | 0.00 | 54 | 1010.1 |
| 20260505004545 | 23 | 216 | 20.9 | 33.8 | 0.00 | 0.00 | 0.00 | 53 | 1009.9 |
| 20260505003033 | 24 | 219 | 22.5 | 33.8 | 0.00 | 0.00 | 0.00 | 51 | 1009.9 |
| 20260505001532 | 24 | 215 | 32.2 | 43.5 | 0.00 | 0.00 | 0.00 | 50 | 1009.8 |
| 20260505000044 | 25 | 208 | 30.6 | 45.1 | 0.00 | 0.00 | 0.00 | 49 | 1009.9 |
| 20260504234529 | 25 | 222 | 35.4 | 48.3 | 0.00 | 0.00 | 0.00 | 49 | 1009.9 |
| 20260504233028 | 25 | 213 | 22.5 | 43.5 | 0.00 | 0.00 | 0.00 | 48 | 1009.9 |
| 20260504231530 | 25 | 205 | 30.6 | 48.3 | 0.00 | 0.00 | 0.00 | 47 | 1010.2 |
| 20260504230024 | 26 | 220 | 37.0 | 51.5 | 0.00 | 0.00 | 0.00 | 47 | 1010.3 |
| 20260504224522 | 26 | 207 | 33.8 | 49.9 | 0.00 | 0.00 | 0.00 | 46 | 1010.3 |
| 20260504223021 | 26 | 202 | 33.8 | 48.3 | 0.00 | 0.00 | 0.00 | 47 | 1010.5 |
| 20260504221519 | 26 | 232 | 37.0 | 49.9 | 0.00 | 0.00 | 0.00 | 46 | 1010.6 |
| 20260504220018 | 26 | 239 | 37.0 | 49.9 | 0.00 | 0.00 | 0.00 | 45 | 1010.7 |
| 20260504214518 | 26 | 241 | 37.0 | 51.5 | 0.00 | 0.00 | 0.00 | 45 | 1010.6 |
| 20260504213016 | 26 | 225 | 38.6 | 49.9 | 0.00 | 0.00 | 0.00 | 44 | 1010.6 |
| 20260504211515 | 26 | 211 | 37.0 | 51.5 | 0.00 | 0.00 | 0.00 | 45 | 1010.7 |
| 20260504210021 | 26 | 238 | 43.5 | 62.8 | 0.00 | 0.00 | 0.00 | 42 | 1010.8 |
| 20260504204512 | 26 | 220 | 40.2 | 59.5 | 0.00 | 0.00 | 0.00 | 43 | 1010.9 |
| 20260504203011 | 26 | 225 | 40.2 | 61.2 | 0.00 | 0.00 | 0.00 | 42 | 1011.0 |
| 20260504201508 | 26 | 360 | 37.0 | 64.4 | 0.00 | 0.00 | 0.00 | 42 | 1011.2 |
| 20260504200010 | 26 | 232 | 38.6 | 61.2 | 0.00 | 0.00 | 0.00 | 42 | 1011.4 |
| 20260504194506 | 26 | 233 | 43.5 | 61.2 | 0.00 | 0.00 | 0.00 | 39 | 1011.4 |
| 20260504193006 | 26 | 221 | 32.2 | 53.1 | 0.00 | 0.00 | 0.00 | 42 | 1011.7 |
| 20260504191611 | 26 | 218 | 46.7 | 64.4 | 0.00 | 0.00 | 0.00 | 41 | 1011.8 |
| 20260504190126 | 26 | 215 | 37.0 | 48.3 | 0.00 | 0.00 | 0.00 | 44 | 1011.9 |
| 20260504184558 | 26 | 238 | 45.1 | 54.7 | 0.00 | 0.00 | 0.00 | 43 | 1012.0 |
| 20260504183105 | 26 | 237 | 38.6 | 56.3 | 0.00 | 0.00 | 0.00 | 41 | 1012.3 |
| 20260504181558 | 26 | 226 | 43.5 | 57.9 | 0.00 | 0.00 | 0.00 | 41 | 1012.3 |
| 20260504180054 | 26 | 231 | 40.2 | 53.1 | 0.00 | 0.00 | 0.00 | 43 | 1012.4 |
| 20260504174551 | 26 | 224 | 38.6 | 53.1 | 0.00 | 0.00 | 0.00 | 42 | 1012.6 |
| 20260504173049 | 26 | 213 | 40.2 | 64.4 | 0.00 | 0.00 | 0.00 | 41 | 1012.8 |
| 20260504171547 | 26 | 228 | 38.6 | 54.7 | 0.00 | 0.00 | 0.00 | 42 | 1013.1 |